Regional Weather Roundup
Issued by NWS Newport/Morehead, NC

Current Version | Previous Version | Text Only | Print | Product List | Glossary On
Versions: 1 2 3 4 5 6 7 8 9 10 11 12 13 14 15 16 17 18 19 20 21 22 23 24 25 26 27 28 29 30 31 32 33 34 35 36 37 38 39 40 41 42 43 44 45 46 47 48 49 50
000 ASUS42 KMHX 280225 RWRMHX WEATHER ROUNDUP FOR EASTERN NORTH CAROLINA NATIONAL WEATHER SERVICE NEWPORT/MOREHEAD CITY NC 1000 PM EDT WED JUL 27 2016 NOTE: "FAIR" INDICATES FEW OR NO CLOUDS BELOW 12,000 FEET WITH NO SIGNIFICANT WEATHER AND/OR OBSTRUCTIONS TO VISIBILITY NCZ015>017-031-032-045>047-102-103-280300- NORTH COAST CITY SKY/WX TMP DP RH WIND PRES REMARKS EDENTON CLOUDY 85 75 72 S8 29.93S ELIZABETH CITY CLOUDY 83 80 91 CALM 29.92R KITTY HAWK CLOUDY 82 73 72 W6 29.92R MANTEO N/A 80 75 84 W6 29.94R $$ NCZ045>047-081-094-103-104-280300- CENTRAL COAST CITY SKY/WX TMP DP RH WIND PRES REMARKS FRISCO CLOUDY 79 74 84 W8 29.94R $$ NCZ095-097-098-100-101-280300- SOUTHERN COAST CITY SKY/WX TMP DP RH WIND PRES REMARKS BEAUFORT HVY RAIN 74 71 91 NE12G28 30.04R FOG CEDAR ISLAND NOT AVBL JACKSONVILLE PTCLDY 85 75 72 SW7 29.95R PINEY ISLAND NOT AVBL WILMINGTON CLEAR 83 76 79 S8 29.96R $$ NCZ011>013-027>030-043-044-078>080-089-090>093-098-280300- COASTAL PLAIN CITY SKY/WX TMP DP RH WIND PRES REMARKS AHOSKIE LGT RAIN 82 81 96 CALM 29.92S CLINTON PTCLDY 84 76 76 CALM 29.95S ELIZABETHTOWN CLEAR 85 77 78 S3 29.96R GOLDSBORO MOCLDY 86 80 83 S3 29.92S HX 102 GREENVILLE CLOUDY 86 77 74 S8 29.95S HAZE HAVELOCK TSTM 79 76 90 NE10 29.98F KENANSVILLE NOT AVBL KINSTON NOT AVBL NEW BERN CLOUDY 76 73 91 SE12 29.97S THUNDER RICHLANDS PTCLDY 84 78 82 S6 29.96R ROCKY MOUNT CLEAR 82 80 94 CALM 29.93S WASHINGTON CLOUDY 79 73 80 S8 29.95S WHITEVILLE CLEAR 84 78 83 CALM 29.96R $$ AMZ130-135-150-152-154-156-158-170-250-252-270-ANZ085-086-088-633-658-670-280300- MARINE OBSERVATIONS STATION/POSITION TIME TEMP WIND PRES WAVE SWELL AIR SEA DIR/SP/G HT/PER HT/PER (UTC) (F) (DEG/KT/KT) (MB) (FT/S) (FT/S) CHESAPEAKE LIGHT NOT AVBL 64 E VA BEACH 0150 83 83 180/ 8/ 8 1013.1 2/ 6 2/ 6 DUCK 0200 68 N/A 2 E DUCK 0211 74 N/A 1/ 8 OREGON INLET 0200 80 N/A 13E OREGON INLT 0200 84 N/A 2/ 6 2/ 6 HATTERAS CG 0200 84 N/A DIAMOND BUOY 0150 82 85 280/ 10/ 12 1013.8 3/ 6 2/ 6 CAPE LOOKOUT 0200 76 10/ 25/ 30 1016.5 BEAUFORT LAB 0200 84 N/A 30 SE NEW RVR IN 0208 85 85 230/ 14/ 17 1015.0 30 SE NEW RVR IN 0125 85 N/A 5/ 6 27 SE WRIGHTSVLE 0208 84 84 230/ 12/ 17 1015.2 5 SE WRIGHTSVLE 0108 82 80 230/ 10/ 12 1015.2 225 S CAPE HAT 0150 84 85 250/ 10/ 12 1016.4 4/ 6 3/ 6 41 SE CHARLESTON 0150 86 86 210/ 16/ 17 1014.5 3/ 4 2/ 8 $$

USA.gov is the U.S. government's official web portal to all federal, state and local government web resources and services.